Regional Weather Roundup
Issued by NWS Jackson, KY

Home | Current Version | Previous Version | Graphics & Text | Print | Product List | Glossary On
Versions: 1 2 3 4 5 6 7 8 9 10 11 12 13 14 15 16 17 18 19 20 21 22 23 24 25 26 27 28
000
ASUS43 KJKL 060810
RWRJKL

EAST KENTUCKY HOURLY WEATHER ROUNDUP
NATIONAL WEATHER SERVICE JACKSON KY
300 AM EST TUE DEC 06 2016

NOTE: "FAIR" INDICATES FEW OR NO CLOUDS BELOW 12,000 FEET WITH
NO SIGNIFICANT WEATHER AND/OR OBSTRUCTIONS TO VISIBILITY.

* THESE REPORTS ARE NOT UNDER NWS QUALITY CONTROL AND MAY NOT
  REPORT WEATHER SUCH AS PRECIPITATION AND FOG.

KYZ079-080-083-085-087-088-110-112-115-119-120-060900
...EASTERN KENTUCKY...

CITY           SKY/WX    TMP DP  RH WIND       PRES   REMARKS
JACKSON        LGT RAIN  43  37  79 VRB5      29.78F
LONDON         LGT RAIN  46  41  82 E5        29.76F
SOMERSET*      RAIN      45  43  93 E3        29.77S
MONTICELLO*    LGT RAIN  48  46  93 VRB6      29.76S
WILLIAMSBURG*  PTSUNNY   46  46 100 SE5       29.76F
MIDDLESBORO*   LGT RAIN  51  48  89 W3        29.82R
HARLAN APT*    CLOUDY    52  45  76 NE3       29.80R
PIKE CO APT*   CLOUDY    50  42  74 SE7       29.81S
MOREHEAD APT*  LGT RAIN  41  36  81 E5        29.82F
ASHLAND*       MOCLDY    45  36  70 N3        29.84R
$$

KYZ035-036-041-042-044-050-067-078-099-060900
...CENTRAL KENTUCKY...

CITY           SKY/WX    TMP DP  RH WIND       PRES   REMARKS
MT STERLING*   DRIZZLE   41  37  87 E5        29.82S
FLEMING/MASON* DRIZZLE   40  35  81 E9        29.83S WCI  34
DANVILLE*      LGT RAIN  41  41 100 NE3       29.78S
LEXINGTON      RAIN      42  38  85 E12       29.78F FOG
FRANKFORT      LGT RAIN  43  37  79 E7        29.77F
LOUISVILLE     RAIN      43  39  86 NE7       29.76F FOG
LEBANON*       LGT RAIN  41  41 100 E7        29.76F
GLASGOW*       RAIN     N/A N/A N/A NE6       29.72F
BOWLING GREEN  LGT RAIN  46  44  93 NE5       29.72F
$$

KYZ091>093-OHZ055-061-077-WVZ005-015-034-035-042-060900
...SOUTHERN OHIO/WEST VIRGINIA...

CITY           SKY/WX    TMP DP  RH WIND       PRES   REMARKS
COVINGTON      CLOUDY    40  33  76 E10       29.82R WCI  33
COLUMBUS       MOCLDY    36  31  82 NE8       29.87F WCI  30
DAYTON         CLOUDY    35  30  82 E10       29.86F WCI  27
WILMINGTON     PTCLDY    35  31  85 E9        29.83F WCI  28
HUNTINGTON     LGT RAIN  43  35  73 E6        29.83S
CHARLESTON     MOCLDY    44  35  70 NE6       29.83F
PINEVILLE*     CLOUDY    49  35  58 MISG      29.92F
BECKLEY        CLOUDY    43  35  73 SE23G35   29.90S
BLUEFIELD      LGT RAIN  40  35  83 SE12G30   29.92F WCI  33
LOGAN CO APT*  CLOUDY    52  39  62 SE13G20   29.83F
$$

VAZ002-007-008-TNZ017-027-036-066-071-060900
...SOUTHWEST VIRGINIA/EAST TENNESSEE...

CITY           SKY/WX    TMP DP  RH WIND       PRES   REMARKS
WISE*          LGT RAIN  46  41  81 SE10G20   29.83F
JONESVILLE*    LGT RAIN  50  46  87 E5        29.85S
ABINGDON*      LGT RAIN  47  43  85 E16       29.89R
BRISTOL        LGT RAIN  50  43  77 SE12      29.86R
MORRISTOWN*    CLOUDY    52  50  93 E6        29.79R
SEVIERVILLE*   PTSUNNY   46  46 100 CALM      29.78S
KNOXVILLE      LGT RAIN  49  47  93 SW3       29.79R FOG
OAK RIDGE      LGT RAIN  50  47  89 CALM      29.81R
CROSSVILLE     LGT RAIN  51  50  96 VRB7      29.78F
NASHVILLE      LGT RAIN  49  46  90 SE5       29.72R
$$

...KEY TO REMARKS...
VSB - VISIBILITY IN MILES
WCI - WIND CHILL INDEX
HX  - HEAT INDEX

$$




USA.gov is the U.S. government's official web portal to all federal, state and local government web resources and services.